Weather History for KIOW - May, 2013

Change the Weather History Date:

Sunday, May 26, 2013

  Actual Average Record
Temperature  
Mean Temperature 55 °F 65 °F  
Max Temperature 59 °F 76 °F 95 °F (1985)
Min Temperature 50 °F 55 °F 36 °F (1961)
Degree Days  
Heating Degree Days 10 3  
Month to date heating degree days 165 157  
Since 1 July heating degree days 6428 6350  
Cooling Degree Days 0 3  
Month to date cooling degree days 51 39  
Year to date cooling degree days 61 43  
Growing Degree Days 4 (Base 50)    
Moisture  
Dew Point 52 °F    
Average Humidity 93    
Maximum Humidity 100    
Minimum Humidity 86    
Precipitation  
Precipitation 1.67 in 0.11 in 2.17 in (1986)
Month to date precipitation 7.06 3.61  
Year to date precipitation 20.39 11.49  
Sea Level Pressure  
Sea Level Pressure 30.14 in    
Wind  
Wind Speed 10 mph (East)    
Max Wind Speed 30 mph    
Max Gust Speed 35 mph    
Visibility 8 miles    
Events Rain , Thunderstorm    
T = Trace of Precipitation, MM = Missing Value Source: NWS Daily Summary

Daily Weather History Graph

Daily Weather History Graph

Search for Another Location

Airport or City:

Trip Planner

Search our weather history database for the weather conditions in past years. The results will help you decide how hot, cold, wet, or windy it might be!

Date:

Astronomy

May. 26, 2013 Rise Set
Actual Time 5:37 AM CDT 8:29 PM CDT
Civil Twilight 5:04 AM CDT 9:02 PM CDT
Nautical Twilight 4:23 AM CDT 9:44 PM CDT
Astronomical Twilight 3:35 AM CDT 10:32 PM CDT
Moon 10:16 PM CDT (5/26) 7:07 AM CDT (5/26)
Length of Visible Light 15h 57m
Length of Day
14h 52m
Waning Gibbous, 96% of the Moon is Illuminated
May 26
Waning Gibbous
May 31
Last Quarter
Jun 8
New
Jun 16
First Quarter
Jun 23
Full

Hourly Weather History & Observations

Time (CDT) Temp. Dew Point Humidity Pressure Visibility Wind Dir Wind Speed Gust Speed Precip Events Conditions
12:11 AM 51.8 °F 48.2 °F 88% 30.24 in 10.0 mi East 9.2 mph - N/A   Overcast
12:52 AM 51.1 °F 48.0 °F 89% 30.23 in 10.0 mi ESE 6.9 mph - N/A   Overcast
1:52 AM 51.1 °F 48.0 °F 89% 30.22 in 10.0 mi ESE 8.1 mph - N/A   Overcast
2:25 AM 51.8 °F 48.2 °F 88% 30.21 in 10.0 mi ESE 6.9 mph - N/A   Overcast
2:42 AM 51.8 °F 48.2 °F 88% 30.20 in 10.0 mi East 8.1 mph - N/A Thunderstorm Overcast
2:52 AM 51.1 °F 48.0 °F 89% 30.22 in 10.0 mi ESE 3.5 mph - N/A   Overcast
3:01 AM 51.8 °F 48.2 °F 88% 30.22 in 10.0 mi ESE 5.8 mph - N/A   Overcast
3:16 AM 51.8 °F 48.2 °F 88% 30.23 in 10.0 mi Calm Calm - 0.00 in Rain , Thunderstorm Light Rain
3:52 AM 50.0 °F 48.9 °F 96% 30.18 in 7.0 mi East 10.4 mph - 0.27 in Rain Rain
4:11 AM 50.0 °F 48.2 °F 94% 30.18 in 10.0 mi ESE 9.2 mph - 0.01 in Rain , Thunderstorm Light Rain
4:26 AM 50.0 °F 48.2 °F 94% 30.17 in 10.0 mi ESE 12.7 mph 20.7 mph 0.02 in Rain Light Rain
4:52 AM 50.0 °F 48.0 °F 93% 30.19 in 10.0 mi East 4.6 mph - 0.05 in Rain Rain
5:05 AM 50.0 °F 48.2 °F 94% 30.18 in 9.0 mi SE 8.1 mph - 0.03 in Rain , Thunderstorm Rain
5:20 AM 50.0 °F 48.2 °F 94% 30.19 in 9.0 mi ENE 6.9 mph - 0.07 in Rain Rain
5:45 AM 51.8 °F 48.2 °F 88% 30.19 in 8.0 mi ENE 6.9 mph - 0.14 in Rain , Thunderstorm Rain
5:52 AM 50.0 °F 48.9 °F 96% 30.20 in 8.0 mi ENE 6.9 mph - 0.16 in Rain , Thunderstorm Rain
6:11 AM 50.0 °F 48.2 °F 94% 30.20 in 6.0 mi East 8.1 mph - 0.09 in Rain , Thunderstorm Heavy Rain
6:25 AM 50.0 °F 48.2 °F 94% 30.17 in 8.0 mi SE 16.1 mph - 0.13 in Rain , Thunderstorm Thunderstorms and Rain
6:35 AM 50.0 °F 48.2 °F 94% 30.17 in 7.0 mi SE 10.4 mph 20.7 mph 0.17 in Rain , Thunderstorm Thunderstorms and Rain
6:52 AM 50.0 °F 48.9 °F 96% 30.18 in 6.0 mi East 10.4 mph - 0.24 in Rain Heavy Rain
6:57 AM 50.0 °F 48.2 °F 94% 30.18 in 6.0 mi East 9.2 mph - 0.02 in Rain , Thunderstorm Heavy Rain
7:18 AM 50.0 °F 48.2 °F 94% 30.20 in 5.0 mi ESE 10.4 mph - 0.11 in Rain Rain
7:35 AM 50.0 °F 48.2 °F 94% 30.20 in 6.0 mi ESE 10.4 mph - 0.15 in Rain Light Rain
7:52 AM 50.0 °F 48.9 °F 96% 30.19 in 10.0 mi East 15.0 mph 20.7 mph 0.15 in Rain Light Rain
8:19 AM 50.0 °F 48.2 °F 94% 30.19 in 10.0 mi East 10.4 mph 18.4 mph 0.00 in   Overcast
8:52 AM 50.0 °F 48.9 °F 96% 30.23 in 7.0 mi East 8.1 mph - 0.01 in Rain Light Rain
9:01 AM 50.0 °F 48.2 °F 94% 30.22 in 10.0 mi East 6.9 mph - 0.01 in Rain Light Rain
9:49 AM 51.8 °F 50.0 °F 94% 30.17 in 10.0 mi ESE 13.8 mph - 0.05 in Rain Light Rain
9:52 AM 52.0 °F 50.0 °F 93% 30.19 in 10.0 mi ESE 11.5 mph 18.4 mph 0.05 in   Overcast
10:10 AM 51.8 °F 50.0 °F 94% 30.18 in 10.0 mi East 9.2 mph - N/A   Overcast
10:52 AM 52.0 °F 51.1 °F 97% 30.23 in 10.0 mi Variable 4.6 mph - 0.00 in Rain Light Rain
11:12 AM 51.8 °F 51.8 °F 100% 30.22 in 4.0 mi ENE 5.8 mph - 0.04 in Rain , Thunderstorm Thunderstorms and Rain
11:22 AM 51.8 °F 51.8 °F 100% 30.18 in 4.0 mi East 11.5 mph - 0.08 in Rain Rain
11:42 AM 53.6 °F 51.8 °F 94% 30.18 in 10.0 mi East 9.2 mph - 0.09 in Rain Light Rain
11:52 AM 54.0 °F 52.0 °F 93% 30.18 in 10.0 mi East 12.7 mph 17.3 mph 0.09 in   Overcast
12:12 PM 53.6 °F 51.8 °F 94% 30.17 in 10.0 mi East 10.4 mph 19.6 mph 0.01 in   Overcast
12:52 PM 55.0 °F 53.1 °F 93% 30.17 in 10.0 mi East 10.4 mph - 0.01 in   Overcast
1:31 PM 55.4 °F 53.6 °F 94% 30.19 in 10.0 mi ENE 6.9 mph - 0.00 in Rain , Thunderstorm Light Rain
1:52 PM 53.1 °F 52.0 °F 96% 30.18 in 2.0 mi NE 11.5 mph - 0.11 in Rain , Thunderstorm Heavy Rain
2:07 PM 53.6 °F 51.8 °F 94% 30.16 in 5.0 mi ENE 5.8 mph - 0.04 in Rain , Thunderstorm Light Thunderstorms and Rain
2:31 PM 53.6 °F 53.6 °F 100% 30.12 in 8.0 mi East 10.4 mph 20.7 mph 0.09 in Thunderstorm Overcast
2:44 PM 55.4 °F 53.6 °F 94% 30.13 in 10.0 mi East 13.8 mph 23.0 mph 0.09 in   Overcast
2:52 PM 55.0 °F 53.1 °F 93% 30.12 in 10.0 mi East 15.0 mph 20.7 mph 0.09 in   Mostly Cloudy
3:12 PM 55.4 °F 53.6 °F 94% 30.12 in 10.0 mi East 10.4 mph 20.7 mph N/A   Overcast
3:47 PM 55.4 °F 53.6 °F 94% 30.09 in 10.0 mi ESE 15.0 mph 24.2 mph 0.00 in   Overcast
3:52 PM 55.9 °F 53.1 °F 90% 30.10 in 10.0 mi East 13.8 mph 20.7 mph 0.00 in   Overcast
4:52 PM 57.0 °F 54.0 °F 89% 30.08 in 10.0 mi ESE 12.7 mph - 0.00 in   Overcast
4:58 PM 57.2 °F 55.4 °F 94% 30.08 in 10.0 mi ESE 15.0 mph 19.6 mph N/A Thunderstorm Overcast
5:23 PM 57.2 °F 55.4 °F 94% 30.07 in 10.0 mi ESE 12.7 mph 18.4 mph N/A   Overcast
5:41 PM 57.2 °F 55.4 °F 94% 30.07 in 10.0 mi ESE 13.8 mph 23.0 mph N/A   Overcast
5:52 PM 57.9 °F 55.0 °F 90% 30.08 in 10.0 mi East 11.5 mph 18.4 mph N/A Thunderstorm Overcast
6:44 PM 57.2 °F 55.4 °F 94% 30.03 in 1.8 mi East 15.0 mph 34.5 mph 0.35 in Rain , Thunderstorm Heavy Thunderstorms and Rain
6:50 PM 57.2 °F 55.4 °F 94% 30.05 in 2.0 mi East 11.5 mph 21.9 mph 0.38 in Rain , Thunderstorm Heavy Thunderstorms and Rain
6:52 PM 57.9 °F 55.9 °F 93% 30.06 in 2.5 mi East 17.3 mph 25.3 mph 0.38 in Rain , Thunderstorm Thunderstorms and Rain
6:58 PM 57.2 °F 55.4 °F 94% 30.07 in 4.0 mi ESE 10.4 mph 25.3 mph 0.02 in Rain , Thunderstorm Thunderstorms and Rain
7:16 PM 57.2 °F 55.4 °F 94% 30.05 in 8.0 mi ESE 15.0 mph 20.7 mph 0.05 in Rain , Thunderstorm Light Rain
7:28 PM 57.2 °F 55.4 °F 94% 30.02 in 8.0 mi ESE 12.7 mph 20.7 mph 0.05 in Rain , Thunderstorm Light Rain
7:45 PM 57.2 °F 57.2 °F 100% 30.05 in 10.0 mi ESE 6.9 mph - 0.05 in Rain Light Rain
7:52 PM 57.9 °F 57.0 °F 97% 30.05 in 8.0 mi East 6.9 mph - 0.06 in Rain Light Rain
7:56 PM 57.2 °F 57.2 °F 100% 30.04 in 9.0 mi East 5.8 mph - 0.00 in Rain , Thunderstorm Light Rain
8:06 PM 57.2 °F 57.2 °F 100% 30.03 in 10.0 mi East 5.8 mph - 0.00 in Rain , Thunderstorm Light Rain
8:25 PM 57.2 °F 57.2 °F 100% 30.04 in 10.0 mi East 4.6 mph - 0.00 in   Scattered Clouds
8:33 PM 57.2 °F 57.2 °F 100% 30.04 in 10.0 mi East 6.9 mph - 0.00 in   Mostly Cloudy
8:52 PM 57.9 °F 57.0 °F 97% 30.04 in 10.0 mi ENE 10.4 mph - 0.00 in   Overcast
9:52 PM 57.9 °F 57.0 °F 97% 30.04 in 10.0 mi East 9.2 mph - N/A   Overcast
10:52 PM 59.0 °F 57.0 °F 93% 30.02 in 10.0 mi East 11.5 mph - N/A   Overcast
11:12 PM 57.2 °F 57.2 °F 100% 30.02 in 10.0 mi East 9.2 mph 18.4 mph N/A   Overcast
11:44 PM 59.0 °F 57.2 °F 94% 30.01 in 10.0 mi East 8.1 mph - N/A   Overcast
11:52 PM 57.9 °F 57.0 °F 97% 30.02 in 10.0 mi East 8.1 mph - N/A   Overcast